Regional Weather Roundup
Issued by NWS

Home | Current Version | Previous Version | Text Only | Print | Product List | Glossary On
Versions: 1 2 3 4 5 6 7 8 9 10 11 12 13 14 15 16 17 18 19 20 21 22 23 24 25 26 27 28 29 30 31 32 33 34 35 36 37 38 39 40 41 42 43 44 45 46 47 48 49 50
000
ASPQ40 PGUM 291914
RWRPQ
WEATHER ROUNDUP FOR THE MARIANAS AND MICRONESIA
NATIONAL WEATHER SERVICE TIYAN GU
500 AM CHST THU JUL 30 2015

GUZ001>004-292000-
MARIANA ISLANDS-

CITY           SKY/WX    TMP DP  RH WIND       PRES   REMARKS
GUAM AIRPORT   CLEAR     77  73  88 E3        29.79R
ANDERSEN AFB   NOT AVBL
ROTA AIRPORT   NOT AVBL
TINIAN AP      NOT AVBL
SAIPAN AP      NOT AVBL

$$

PMZ161-292000-
REPUBLIC OF PALAU-

CITY           SKY/WX    TMP DP  RH WIND       PRES   REMARKS
KOROR AP       MOCLDY    79  77  94 W8        29.78F
KOROR WSO      MOCLDY    81  75  83 W8        29.80S

$$

PMZ171>174-292000-
FEDERATED STATES OF MICRONESIA-

CITY           SKY/WX    TMP DP  RH WIND       PRES   REMARKS
YAP AIRPORT    MOCLDY    79  77  94 CALM      29.76S
CHUUK AP       CLOUDY    81  77  89 NW14      29.78F
POHNPEI AP     CLOUDY    77  75  94 W12       29.73F
POHNPEI WSO    LGT RAIN  79  79 100 SW5       29.78R
KOSRAE AP      NOT AVBL

$$

PMZ181-292000-
REPUBLIC OF THE MARSHALL ISLANDS-

CITY           SKY/WX    TMP DP  RH WIND       PRES   REMARKS
KWAJALEIN AP   DRIZZLE   82  75  78 CALM      29.73S
MAJURO AP      NOT AVBL
MAJURO WSO     CLOUDY    82  77  83 NE9       29.69R HX  91

$$



USA.gov is the U.S. government's official web portal to all federal, state and local government web resources and services.